{"data":{"norad_id":52861,"intl_designator":"2022-062AH","name":"STARLINK-4112","alt_names":[],"object_type":"PAYLOAD","status":"ACTIVE","operator":null,"country":"US","launch_date":"2022-06-17","launch_site_code":"AFETR","launch_vehicle":null,"mission":null,"orbit_class":"UNKNOWN","rcs_meters":null,"size_class":null,"mass_kg":null,"dimensions":null,"purposes":["comms"],"wikipedia_slug":null,"has_3d_model":false,"image_url":null,"decayed_at":null,"tle_current":{"epoch":"2026-05-24T23:14:42.333792Z","epoch_age_seconds":77803,"freshness":"FRESH","line1":"1 52861U 22062AH  26144.96854553  .00000123  00000+0  25791-4 0  9999","line2":"2 52861  53.2144  41.7031 0001446  90.3140 269.8018 15.08842087217446","mean_motion":15.08842087,"eccentricity":0.0001446,"inclination_deg":53.2144,"raan_deg":41.7031,"arg_perigee_deg":90.314,"mean_anomaly_deg":269.8018,"bstar":2.5791e-5,"rev_number":21744,"period_min":95.437422670461,"perigee_km":538.73668526555,"apogee_km":540.7373344292,"semimajor_km":6917.8740098474,"source":"CELESTRAK","updated_at":"2026-05-25T13:38:17.247411Z"}}}